GLO1224 SBSP-SBJV

Flight info

Callsign GLO1224
Flight time 0h 39m
Altitude 26000
Route SOVSI UZ85 RAXIT
Aircraft B738/M-SDE2E3FGHIRWXY/LB1

Departure

Time 2026-05-07 18:13
Airport Congonhas–Deputado Freitas Nobre Airport (SBSP)

Arrival

Time 2026-05-07 18:52
Airport Lauro Carneiro de Loyola Airport (SBJV)
Time Latitude Longitude Altitude Speed Heading
2026-05-07 17:48 -23.62987 -46.65636 2600 ft 0 kts 147°
2026-05-07 18:05 -23.62987 -46.65637 2600 ft 2 kts 148°
2026-05-07 18:05 -23.62969 -46.65649 2600 ft 3 kts 137°
2026-05-07 18:05 -23.62958 -46.65664 2600 ft 3 kts 78°
2026-05-07 18:06 -23.62967 -46.65682 2600 ft 3 kts 57°
2026-05-07 18:06 -23.62971 -46.65689 2600 ft 0 kts 57°
2026-05-07 18:09 -23.62970 -46.65687 2627 ft 2 kts 57°
2026-05-07 18:09 -23.62945 -46.65646 2600 ft 0 kts 57°
2026-05-07 18:09 -23.62932 -46.65624 2600 ft 6 kts 58°
2026-05-07 18:10 -23.62928 -46.65574 2602 ft 7 kts 122°
2026-05-07 18:10 -23.62973 -46.65541 2602 ft 9 kts 149°
2026-05-07 18:10 -23.63036 -46.65519 2602 ft 11 kts 168°
2026-05-07 18:10 -23.63111 -46.65483 2601 ft 13 kts 147°
2026-05-07 18:11 -23.63191 -46.65426 2601 ft 15 kts 147°
2026-05-07 18:11 -23.63254 -46.65383 2601 ft 17 kts 147°
2026-05-07 18:11 -23.63396 -46.65286 2601 ft 20 kts 147°
2026-05-07 18:11 -23.63461 -46.65240 2600 ft 6 kts 147°
2026-05-07 18:12 -23.63502 -46.65205 2599 ft 9 kts 127°
2026-05-07 18:12 -23.63481 -46.65145 2594 ft 10 kts 39°
2026-05-07 18:12 -23.63436 -46.65114 2599 ft 2 kts 355°
2026-05-07 18:12 -23.63402 -46.65137 2602 ft 26 kts 327°
2026-05-07 18:13 -23.62972 -46.65434 2609 ft 117 kts 328°
2026-05-07 18:13 -23.62119 -46.66018 3052 ft 155 kts 327°
2026-05-07 18:13 -23.61237 -46.66669 4289 ft 152 kts 324°
2026-05-07 18:13 -23.60618 -46.67653 5113 ft 176 kts 294°
2026-05-07 18:14 -23.60133 -46.69029 5514 ft 212 kts 297°
2026-05-07 18:14 -23.59526 -46.70595 5969 ft 232 kts 297°
2026-05-07 18:14 -23.58896 -46.72204 6829 ft 235 kts 296°
2026-05-07 18:14 -23.58241 -46.73862 7753 ft 240 kts 297°
2026-05-07 18:15 -23.57575 -46.75540 8811 ft 242 kts 297°
2026-05-07 18:15 -23.57163 -46.77393 9471 ft 271 kts 272°
2026-05-07 18:15 -23.57771 -46.79439 10108 ft 300 kts 238°
2026-05-07 18:15 -23.59375 -46.81020 10603 ft 330 kts 210°
2026-05-07 18:16 -23.61518 -46.82197 10893 ft 357 kts 215°
2026-05-07 18:16 -23.63214 -46.84163 11671 ft 360 kts 238°
2026-05-07 18:16 -23.64863 -46.86259 12441 ft 371 kts 218°
2026-05-07 18:16 -23.67190 -46.87484 13359 ft 375 kts 198°
2026-05-07 18:17 -23.69653 -46.88399 14118 ft 380 kts 200°
2026-05-07 18:17 -23.72111 -46.89517 14935 ft 385 kts 204°
2026-05-07 18:17 -23.74545 -46.90755 15831 ft 387 kts 206°
2026-05-07 18:17 -23.76819 -46.92357 16568 ft 393 kts 225°
2026-05-07 18:18 -23.78511 -46.94678 17582 ft 389 kts 237°
2026-05-07 18:18 -23.80038 -46.97140 18438 ft 392 kts 239°
2026-05-07 18:18 -23.81539 -46.99638 19192 ft 394 kts 239°
2026-05-07 18:18 -23.83037 -47.02143 20030 ft 394 kts 239°
2026-05-07 18:19 -23.84545 -47.04649 20868 ft 394 kts 238°
2026-05-07 18:19 -23.86061 -47.07151 21660 ft 396 kts 238°
2026-05-07 18:19 -23.87589 -47.09656 22482 ft 396 kts 238°
2026-05-07 18:19 -23.89088 -47.12105 23539 ft 389 kts 238°
2026-05-07 18:20 -23.90577 -47.14533 24517 ft 381 kts 238°
2026-05-07 18:20 -23.92046 -47.16928 25369 ft 379 kts 238°
2026-05-07 18:20 -23.93510 -47.19316 25751 ft 373 kts 238°
2026-05-07 18:20 -23.94955 -47.21675 25927 ft 376 kts 238°
2026-05-07 18:21 -23.96418 -47.24068 25926 ft 379 kts 238°
2026-05-07 18:21 -23.97882 -47.26461 25934 ft 377 kts 238°
2026-05-07 18:21 -23.99340 -47.28845 25945 ft 377 kts 238°
2026-05-07 18:21 -24.00792 -47.31222 25945 ft 377 kts 238°
2026-05-07 18:22 -24.02253 -47.33612 25949 ft 376 kts 238°
2026-05-07 18:22 -24.03218 -47.35193 25941 ft 377 kts 238°
2026-05-07 18:22 -24.05165 -47.38385 25938 ft 377 kts 238°
2026-05-07 18:22 -24.06623 -47.40775 25937 ft 377 kts 238°
2026-05-07 18:23 -24.08080 -47.43164 25928 ft 377 kts 238°
2026-05-07 18:23 -24.09538 -47.45553 25933 ft 377 kts 237°
2026-05-07 18:23 -24.11259 -47.47724 25917 ft 382 kts 222°
2026-05-07 18:23 -24.13446 -47.49382 25935 ft 383 kts 216°
2026-05-07 18:24 -24.15705 -47.50928 25927 ft 383 kts 214°
2026-05-07 18:24 -24.17946 -47.52438 25920 ft 383 kts 215°
2026-05-07 18:24 -24.20217 -47.53975 25911 ft 383 kts 215°
2026-05-07 18:24 -24.22483 -47.55524 25909 ft 383 kts 215°
2026-05-07 18:25 -24.24734 -47.57076 25915 ft 383 kts 215°
2026-05-07 18:25 -24.26988 -47.58639 25905 ft 383 kts 216°
2026-05-07 18:25 -24.29238 -47.60203 25910 ft 383 kts 216°
2026-05-07 18:25 -24.31495 -47.61776 25902 ft 383 kts 216°
2026-05-07 18:26 -24.33745 -47.63344 25906 ft 383 kts 216°
2026-05-07 18:26 -24.35996 -47.64914 25902 ft 383 kts 216°
2026-05-07 18:26 -24.38249 -47.66485 25898 ft 383 kts 216°
2026-05-07 18:26 -24.40497 -47.68053 25896 ft 383 kts 216°
2026-05-07 18:27 -24.42735 -47.69640 25890 ft 382 kts 218°
2026-05-07 18:27 -24.44891 -47.71335 25891 ft 381 kts 220°
2026-05-07 18:27 -24.47010 -47.73089 25891 ft 380 kts 220°
2026-05-07 18:27 -24.48405 -47.74261 25890 ft 380 kts 220°
2026-05-07 18:28 -24.51192 -47.76604 25885 ft 380 kts 220°
2026-05-07 18:28 -24.53296 -47.78365 25887 ft 380 kts 220°
2026-05-07 18:28 -24.55407 -47.80122 25889 ft 380 kts 220°
2026-05-07 18:28 -24.57515 -47.81872 25893 ft 380 kts 220°
2026-05-07 18:29 -24.59631 -47.83623 25888 ft 380 kts 220°
2026-05-07 18:29 -24.61749 -47.85375 25888 ft 380 kts 220°
2026-05-07 18:29 -24.63865 -47.87124 25888 ft 380 kts 220°
2026-05-07 18:29 -24.65952 -47.88850 25889 ft 380 kts 220°
2026-05-07 18:30 -24.68066 -47.90598 25895 ft 380 kts 220°
2026-05-07 18:30 -24.70185 -47.92352 25892 ft 380 kts 220°
2026-05-07 18:30 -24.72299 -47.94101 25901 ft 380 kts 220°
2026-05-07 18:30 -24.74415 -47.95854 25895 ft 381 kts 220°
2026-05-07 18:31 -24.76531 -47.97603 25894 ft 381 kts 220°
2026-05-07 18:31 -24.78654 -47.99363 25892 ft 381 kts 220°
2026-05-07 18:31 -24.80774 -48.01121 25892 ft 381 kts 220°
2026-05-07 18:31 -24.82896 -48.02883 25894 ft 381 kts 220°
2026-05-07 18:32 -24.85014 -48.04642 25867 ft 381 kts 220°
2026-05-07 18:32 -24.87113 -48.06384 25485 ft 380 kts 220°
2026-05-07 18:32 -24.89245 -48.08155 24963 ft 379 kts 220°
2026-05-07 18:32 -24.91343 -48.09899 24437 ft 377 kts 220°
2026-05-07 18:33 -24.93427 -48.11633 23517 ft 386 kts 220°
2026-05-07 18:33 -24.95577 -48.13423 22877 ft 386 kts 220°
2026-05-07 18:33 -24.97740 -48.15225 21867 ft 394 kts 220°
2026-05-07 18:33 -24.99923 -48.17043 21349 ft 391 kts 220°
2026-05-07 18:34 -25.02086 -48.18843 20760 ft 388 kts 220°
2026-05-07 18:34 -25.04239 -48.20636 20286 ft 385 kts 219°
2026-05-07 18:34 -25.06389 -48.22428 19788 ft 393 kts 219°
2026-05-07 18:34 -25.08624 -48.24297 19244 ft 409 kts 219°
2026-05-07 18:35 -25.10905 -48.26201 18689 ft 411 kts 219°
2026-05-07 18:35 -25.13176 -48.28095 18123 ft 406 kts 219°
2026-05-07 18:35 -25.15416 -48.29963 17521 ft 400 kts 219°
2026-05-07 18:35 -25.17594 -48.31783 16992 ft 395 kts 219°
2026-05-07 18:36 -25.19767 -48.33599 16623 ft 387 kts 219°
2026-05-07 18:36 -25.21910 -48.35393 16311 ft 392 kts 219°
2026-05-07 18:36 -25.24129 -48.37217 15988 ft 401 kts 214°
2026-05-07 18:36 -25.25814 -48.38155 15745 ft 404 kts 200°
2026-05-07 18:37 -25.28532 -48.38745 15461 ft 402 kts 187°
2026-05-07 18:37 -25.31309 -48.39082 15118 ft 400 kts 186°
2026-05-07 18:37 -25.34078 -48.39428 14796 ft 399 kts 187°
2026-05-07 18:37 -25.36828 -48.39801 14486 ft 398 kts 187°
2026-05-07 18:38 -25.39574 -48.40193 14182 ft 396 kts 188°
2026-05-07 18:38 -25.43190 -48.40716 13724 ft 396 kts 187°
2026-05-07 18:38 -25.45036 -48.40982 13428 ft 396 kts 187°
2026-05-07 18:38 -25.47772 -48.41375 13008 ft 395 kts 187°
2026-05-07 18:39 -25.50495 -48.41765 12596 ft 393 kts 188°
2026-05-07 18:39 -25.53158 -48.42147 12208 ft 390 kts 188°
2026-05-07 18:39 -25.55831 -48.42531 11817 ft 384 kts 188°
2026-05-07 18:39 -25.58453 -48.42907 11431 ft 374 kts 188°
2026-05-07 18:40 -25.60922 -48.43614 11041 ft 364 kts 207°
2026-05-07 18:40 -25.62981 -48.45161 10710 ft 352 kts 226°
2026-05-07 18:40 -25.64662 -48.47080 10383 ft 343 kts 230°
2026-05-07 18:40 -25.66272 -48.49007 10036 ft 338 kts 230°
2026-05-07 18:41 -25.67851 -48.50907 9802 ft 329 kts 230°
2026-05-07 18:41 -25.69365 -48.52714 9801 ft 308 kts 230°
2026-05-07 18:41 -25.70785 -48.54398 9561 ft 293 kts 230°
2026-05-07 18:41 -25.72156 -48.56021 9045 ft 291 kts 230°
2026-05-07 18:42 -25.73556 -48.57677 8628 ft 291 kts 231°
2026-05-07 18:42 -25.74922 -48.59290 8303 ft 290 kts 231°
2026-05-07 18:42 -25.76298 -48.60912 8005 ft 288 kts 231°
2026-05-07 18:42 -25.77665 -48.62522 7703 ft 285 kts 231°
2026-05-07 18:43 -25.79010 -48.64112 7425 ft 279 kts 231°
2026-05-07 18:43 -25.80335 -48.65664 7153 ft 275 kts 231°
2026-05-07 18:43 -25.81746 -48.67110 6861 ft 281 kts 218°
2026-05-07 18:43 -25.83448 -48.68199 6602 ft 282 kts 213°
2026-05-07 18:44 -25.85152 -48.69266 6315 ft 282 kts 214°
2026-05-07 18:44 -25.86851 -48.70351 6019 ft 281 kts 214°
2026-05-07 18:44 -25.88562 -48.71397 5741 ft 278 kts 212°
2026-05-07 18:44 -25.90218 -48.72385 5664 ft 260 kts 213°
2026-05-07 18:45 -25.91746 -48.73299 5455 ft 249 kts 213°
2026-05-07 18:45 -25.93254 -48.74209 5096 ft 246 kts 213°
2026-05-07 18:45 -25.94736 -48.75106 4763 ft 237 kts 213°
2026-05-07 18:45 -25.96141 -48.75955 4547 ft 224 kts 213°
2026-05-07 18:46 -25.97483 -48.76769 4365 ft 217 kts 213°
2026-05-07 18:46 -25.98791 -48.77564 4166 ft 211 kts 213°
2026-05-07 18:46 -26.00058 -48.78334 3983 ft 204 kts 212°
2026-05-07 18:46 -26.01281 -48.79076 3806 ft 195 kts 212°
2026-05-07 18:47 -26.02451 -48.79787 3600 ft 188 kts 213°
2026-05-07 18:47 -26.03583 -48.80474 3403 ft 184 kts 212°
2026-05-07 18:47 -26.04708 -48.81157 3249 ft 185 kts 212°
2026-05-07 18:47 -26.05826 -48.81838 3085 ft 185 kts 212°
2026-05-07 18:48 -26.06957 -48.82527 2898 ft 185 kts 210°
2026-05-07 18:48 -26.08150 -48.82995 2734 ft 178 kts 195°
2026-05-07 18:48 -26.09319 -48.83330 2585 ft 168 kts 197°
2026-05-07 18:48 -26.10420 -48.83666 2413 ft 161 kts 197°
2026-05-07 18:49 -26.11489 -48.83996 2280 ft 159 kts 197°
2026-05-07 18:49 -26.12582 -48.84336 2115 ft 164 kts 196°
2026-05-07 18:49 -26.13671 -48.84674 1946 ft 160 kts 195°
2026-05-07 18:49 -26.14734 -48.85004 1854 ft 155 kts 196°
2026-05-07 18:50 -26.15763 -48.85307 1625 ft 152 kts 192°
2026-05-07 18:50 -26.16803 -48.85399 1410 ft 147 kts 174°
2026-05-07 18:50 -26.17794 -48.85143 1235 ft 146 kts 156°
2026-05-07 18:50 -26.18680 -48.84606 1042 ft 143 kts 143°
2026-05-07 18:51 -26.19435 -48.83912 861 ft 139 kts 133°
2026-05-07 18:51 -26.20043 -48.83084 681 ft 138 kts 127°
2026-05-07 18:51 -26.20635 -48.82259 511 ft 134 kts 128°
2026-05-07 18:51 -26.21224 -48.81448 324 ft 136 kts 127°
2026-05-07 18:52 -26.21802 -48.80625 139 ft 133 kts 127°
2026-05-07 18:52 -26.22358 -48.79847 25 ft 117 kts 128°
2026-05-07 18:52 -26.22660 -48.79450 26 ft 19 kts 141°
2026-05-07 18:52 -26.22699 -48.79400 26 ft 1 kts 65°
2026-05-07 18:53 -26.22691 -48.79403 25 ft 1 kts 332°
2026-05-07 18:53 -26.22651 -48.79455 23 ft 19 kts 308°
2026-05-07 18:53 -26.22525 -48.79628 26 ft 37 kts 309°
2026-05-07 18:53 -26.22376 -48.79835 23 ft 26 kts 309°
2026-05-07 18:54 -26.22302 -48.79957 26 ft 18 kts 271°
2026-05-07 18:54 -26.22326 -48.80022 24 ft 7 kts 239°
2026-05-07 18:54 -26.22339 -48.80047 22 ft 1 kts 239°
2026-05-07 18:54 -26.22366 -48.80077 22 ft 4 kts 218°
2026-05-07 18:55 -26.22383 -48.80093 22 ft 2 kts 218°
2026-05-07 18:55 -26.22395 -48.80103 24 ft 2 kts 219°
2026-05-07 18:55 -26.22396 -48.80104 24 ft 0 kts 219°